Hourly Data Report for October 05, 2017

All times are specified in Local Standard Time (LST). Add 1 hour to adjust for Daylight Saving Time where and when it is observed.

SWAN RIVER RCS
MANITOBA

52°06'53.900" N
101°13'58.500" W
334.80 m
504K80K
71443
WEQ

Download Data

Hourly Data (October 2017)
Hourly Data Report for October 5, 2017
Temp Definition
°C
Dew Point Temp Definition
°C
Rel Hum Definition
%
Wind Dir Definition
10's deg

Wind Spd Definition
km/h
Visibility Definition
km
Stn Press Definition
kPa
Hmdx Definition


Wind Chill Definition


Weather Definition


TIME
00:00 1.7 0.4 91 27 7   98.08     LegendNANA
01:00 1.5 0.3 92 25 6   98.09     LegendNANA
02:00 0.0 -0.9 94 21 7   98.09   -2 LegendNANA
03:00 -0.5 -1.2 95 22 6   98.09   -3 LegendNANA
04:00 0.0 -1.1 92 24 9   98.12   -3 LegendNANA
05:00 -0.1 -1.1 93 23 8   98.13   -3 LegendNANA
06:00 -1.0 -1.9 94 22 11   98.13   -5 LegendNANA
07:00 -0.8 -1.7 94 22 13   98.10   -5 LegendNANA
08:00 0.6 -1.0 89 23 11   98.11     LegendNANA
09:00 3.4 0.5 81 23 11   98.13     LegendNANA
10:00 5.6 1.4 74 24 12   98.13     LegendNANA
11:00 8.5 1.7 62 24 13   98.06     LegendNANA
12:00 10.8 1.1 51 25 19   97.98     LegendNANA
13:00 12.0 1.6 49 24 20   97.92     LegendNANA
14:00 13.1 1.8 46 24 21   97.85     LegendNANA
15:00 13.6 1.2 43 25 19   97.79     LegendNANA
16:00 15.0 1.7 40 24 16   97.75     LegendNANA
17:00 13.6 1.6 44 23 20   97.68     LegendNANA
18:00 12.1 1.2 47 23 13   97.64     LegendNANA
19:00 9.5 1.7 58 23 12   97.59     LegendNANA
20:00 9.0 1.3 58 23 19   97.53     LegendNANA
21:00 8.3 1.3 62 23 17   97.47     LegendNANA
22:00 6.5 1.3 69 22 18   97.42     LegendNANA
23:00 6.4 1.4 70 22 18   97.37     LegendNANA

Notes on Data Quality.

Legend

  • E = Estimated
  • M = Missing
  • NA = Not Available
  • ‡ = Partner data that is not subject to review by the National Climate Archives
Date modified: